Simultaneous Nadir Overpasses (SNOs) Predictions

Prediction of SNOs between AQUA and GOES-15 Satellite Orbit:

Table of predicted SNOs for the next 14.0 days since TLE Epoch: 5/14/2022
Index Date Time (AQUA) AQUA Lat,Lon GOES-15 Lat,Lon Distance(km) Time Diff (sec)
1 05/15/2022 10:06:26 -0.04,-127.11 0.09,-127.72 69.66 80
2 05/17/2022 09:53:58 -0.70,-124.08 0.09,-127.64 406.04 80
3 05/17/2022 22:15:18 -0.39,-129.25 -0.07,-127.64 183.03 80
4 05/19/2022 22:02:49 0.24,-126.21 -0.07,-127.55 152.77 80
5 05/20/2022 10:24:00 0.86,-131.35 0.05,-127.52 435.16 80
6 05/21/2022 21:50:19 0.82,-123.16 -0.08,-127.46 488.55 80
7 05/22/2022 10:11:30 0.27,-128.30 0.06,-127.43 99.52 80
8 05/24/2022 09:59:01 -0.39,-125.26 0.07,-127.34 236.39 80
9 05/24/2022 22:20:20 -0.73,-130.43 -0.05,-127.32 353.66 80
10 05/26/2022 22:07:50 -0.10,-127.39 -0.05,-127.23 17.81 80
